When you browse on this site, cookies collect data to enhance your experience and personalize the content and advertising you see.
Visit our Privacy Policy to learn more. By continuing to use the site, you agree to this use of cookies and data.
  • In Lithuania
  • List of Countries
  • For 7 days
  • Water Temperature
  • Satellite Maps
  • Weather Map
  • Weather Widgets
  • user-avatar
    Login

    Hourly Weather Saskatoon

    Today, 17 July, Wednesday

    Time Temperature Precipitation Wind Pressure Humidity
    00:00 +16°C° 0.1 mm 2 mps 711 mmHg 96%
    01:00 +16°C° 0.1 mm 2 mps 711 mmHg 96%
    02:00 +15°C° 0.1 mm 2 mps 711 mmHg 97%
    03:00 +15°C° 0.1 mm 2 mps 710 mmHg 97%
    04:00 +15°C° 0.1 mm 2 mps 710 mmHg 97%
    05:00 +15°C° 0.1 mm 2 mps 710 mmHg 96%
    06:00 +16°C° 0 mm 2 mps 710 mmHg 94%
    07:00 +17°C° 0 mm 2 mps 710 mmHg 91%
    08:00 +17°C° 0 mm 2 mps 710 mmHg 88%
    09:00 +18°C° 0.2 mm 2 mps 710 mmHg 85%
    10:00 +19°C° 0.2 mm 2 mps 710 mmHg 81%
    11:00 +19°C° 0.2 mm 2 mps 709 mmHg 78%
    12:00 +20°C° 0.8 mm 2 mps 709 mmHg 74%
    13:00 +21°C° 0.8 mm 2 mps 709 mmHg 70%
    14:00 +23°C° 0.8 mm 1 mps 708 mmHg 67%
    15:00 +23°C° 1.3 mm 1 mps 708 mmHg 68%
    16:00 +23°C° 1.3 mm 1 mps 707 mmHg 69%
    17:00 +23°C° 1.3 mm 1 mps 707 mmHg 70%
    18:00 +20°C° 1.1 mm 2 mps 707 mmHg 76%
    19:00 +19°C° 1.1 mm 2 mps 706 mmHg 81%
    20:00 +18°C° 1.1 mm 3 mps 706 mmHg 87%
    21:00 +17°C° 0 mm 3 mps 705 mmHg 89%
    22:00 +17°C° 0 mm 3 mps 705 mmHg 91%
    23:00 +15°C° 0 mm 4 mps 704 mmHg 93%

    Tomorrow, 18 July, Thursday

    Time Temperature Precipitation Wind Pressure Humidity
    00:00 +15°C° 0.4 mm 4 mps 704 mmHg 93%
    01:00 +16°C° 0.4 mm 3 mps 704 mmHg 93%
    02:00 +16°C° 0.4 mm 3 mps 704 mmHg 94%
    03:00 +16°C° 0.1 mm 3 mps 703 mmHg 92%
    04:00 +16°C° 0.1 mm 2 mps 703 mmHg 90%
    05:00 +16°C° 0.1 mm 2 mps 703 mmHg 89%
    06:00 +17°C° 0.1 mm 3 mps 703 mmHg 86%
    07:00 +17°C° 0.1 mm 3 mps 703 mmHg 83%
    08:00 +18°C° 0.1 mm 3 mps 702 mmHg 80%
    09:00 +19°C° 0.9 mm 3 mps 703 mmHg 74%
    10:00 +21°C° 0.9 mm 3 mps 703 mmHg 68%
    11:00 +22°C° 0.9 mm 3 mps 703 mmHg 63%
    12:00 +22°C° 1.3 mm 3 mps 702 mmHg 64%
    13:00 +22°C° 1.3 mm 4 mps 702 mmHg 65%
    14:00 +22°C° 1.3 mm 4 mps 702 mmHg 65%
    15:00 +21°C° 2.3 mm 4 mps 702 mmHg 72%
    16:00 +19°C° 2.3 mm 4 mps 702 mmHg 78%
    17:00 +18°C° 2.3 mm 4 mps 703 mmHg 84%
    18:00 +17°C° 1.3 mm 4 mps 703 mmHg 86%
    19:00 +17°C° 1.3 mm 4 mps 703 mmHg 89%
    20:00 +15°C° 1.3 mm 4 mps 704 mmHg 91%
    21:00 +14°C° 0.7 mm 4 mps 704 mmHg 92%
    22:00 +14°C° 0.7 mm 3 mps 704 mmHg 93%
    23:00 +13°C° 0.7 mm 3 mps 705 mmHg 94%

    Day after tomorrow, 19 July, Friday

    Time Temperature Precipitation Wind Pressure Humidity
    00:00 +13°C° 0.6 mm 3 mps 705 mmHg 95%
    01:00 +13°C° 0.6 mm 3 mps 705 mmHg 95%
    02:00 +14°C° 0.6 mm 2 mps 706 mmHg 96%
    03:00 +13°C° 1.2 mm 3 mps 706 mmHg 96%
    04:00 +13°C° 1.2 mm 3 mps 706 mmHg 97%
    05:00 +13°C° 1.2 mm 3 mps 707 mmHg 97%
    06:00 +13°C° 1.3 mm 4 mps 707 mmHg 96%
    07:00 +14°C° 1.3 mm 4 mps 708 mmHg 95%
    08:00 +14°C° 1.3 mm 5 mps 708 mmHg 93%
    09:00 +15°C° 0.5 mm 5 mps 709 mmHg 88%
    10:00 +17°C° 0.5 mm 4 mps 709 mmHg 83%
    11:00 +19°C° 0.5 mm 4 mps 710 mmHg 78%
    12:00 +19°C° 1.1 mm 4 mps 710 mmHg 78%
    13:00 +19°C° 1.1 mm 3 mps 710 mmHg 77%
    14:00 +19°C° 1.1 mm 3 mps 711 mmHg 77%
    15:00 +19°C° 0.6 mm 3 mps 711 mmHg 76%
    16:00 +19°C° 0.6 mm 2 mps 711 mmHg 75%
    17:00 +19°C° 0.6 mm 2 mps 712 mmHg 75%
    18:00 +18°C° 0 mm 2 mps 712 mmHg 79%
    19:00 +17°C° 0 mm 2 mps 712 mmHg 83%
    20:00 +16°C° 0 mm 1 mps 712 mmHg 88%
    21:00 +15°C° 0 mm 1 mps 713 mmHg 88%
    22:00 +14°C° 0 mm 1 mps 713 mmHg 88%
    23:00 +14°C° 0 mm 1 mps 713 mmHg 89%

    20 July, Saturday

    Time Temperature Precipitation Wind Pressure Humidity
    00:00 +12°C° 0 mm 0 mps 714 mmHg 89%
    01:00 +12°C° 0 mm 0 mps 714 mmHg 89%
    02:00 +12°C° 0 mm 0 mps 714 mmHg 89%
    03:00 +12°C° 0.1 mm 0 mps 715 mmHg 90%
    04:00 +12°C° 0.1 mm 0 mps 715 mmHg 90%
    05:00 +12°C° 0.1 mm 0 mps 716 mmHg 90%
    06:00 +13°C° 0 mm 0 mps 716 mmHg 87%
    07:00 +15°C° 0 mm 0 mps 717 mmHg 83%
    08:00 +16°C° 0 mm 0 mps 717 mmHg 79%
    09:00 +17°C° 0.1 mm 0 mps 717 mmHg 75%
    10:00 +20°C° 0.1 mm 1 mps 718 mmHg 71%
    11:00 +21°C° 0.1 mm 1 mps 718 mmHg 67%
    12:00 +22°C° 0.2 mm 1 mps 718 mmHg 64%
    13:00 +23°C° 0.2 mm 1 mps 718 mmHg 60%
    14:00 +24°C° 0.2 mm 2 mps 718 mmHg 57%
    15:00 +24°C° 0.8 mm 2 mps 718 mmHg 59%
    16:00 +24°C° 0.8 mm 3 mps 718 mmHg 62%
    17:00 +22°C° 0.8 mm 3 mps 718 mmHg 65%
    18:00 +21°C° 0.2 mm 3 mps 718 mmHg 70%
    19:00 +19°C° 0.2 mm 3 mps 719 mmHg 76%
    20:00 +18°C° 0.2 mm 2 mps 719 mmHg 81%
    21:00 +17°C° 0 mm 2 mps 719 mmHg 82%
    22:00 +16°C° 0 mm 2 mps 719 mmHg 83%
    23:00 +15°C° 0 mm 1 mps 720 mmHg 83%

    21 July, Sunday

    Time Temperature Precipitation Wind Pressure Humidity
    00:00 +15°C° 0 mm 1 mps 720 mmHg 82%
    01:00 +14°C° 0 mm 1 mps 720 mmHg 81%
    02:00 +14°C° 0 mm 1 mps 720 mmHg 80%
    03:00 +14°C° 0 mm 1 mps 720 mmHg 81%
    04:00 +13°C° 0 mm 1 mps 721 mmHg 82%
    05:00 +13°C° 0 mm 1 mps 721 mmHg 82%
    06:00 +15°C° 0 mm 1 mps 721 mmHg 77%
    07:00 +17°C° 0 mm 2 mps 722 mmHg 72%
    08:00 +19°C° 0 mm 2 mps 722 mmHg 66%
    09:00 +20°C° 0 mm 2 mps 723 mmHg 60%
    10:00 +23°C° 0 mm 2 mps 723 mmHg 55%
    11:00 +24°C° 0 mm 3 mps 723 mmHg 49%
    12:00 +25°C° 0 mm 3 mps 723 mmHg 47%
    13:00 +25°C° 0 mm 3 mps 723 mmHg 45%
    14:00 +26°C° 0 mm 3 mps 723 mmHg 43%
    15:00 +26°C° 0 mm 3 mps 723 mmHg 45%
    16:00 +25°C° 0 mm 3 mps 723 mmHg 47%
    17:00 +25°C° 0 mm 3 mps 723 mmHg 49%
    18:00 +22°C° 0 mm 3 mps 723 mmHg 55%
    19:00 +21°C° 0 mm 2 mps 723 mmHg 61%
    20:00 +19°C° 0 mm 2 mps 723 mmHg 67%
    21:00 +18°C° 0 mm 2 mps 723 mmHg 70%
    22:00 +17°C° 0 mm 2 mps 723 mmHg 72%
    23:00 +16°C° 0 mm 3 mps 723 mmHg 75%

    22 July, Monday

    Time Temperature Precipitation Wind Pressure Humidity
    00:00 +16°C° 0 mm 3 mps 723 mmHg 77%
    01:00 +15°C° 0 mm 2 mps 723 mmHg 80%
    02:00 +15°C° 0 mm 2 mps 723 mmHg 82%
    03:00 +15°C° 0 mm 2 mps 723 mmHg 82%
    04:00 +15°C° 0 mm 2 mps 723 mmHg 82%
    05:00 +15°C° 0 mm 2 mps 723 mmHg 82%
    06:00 +17°C° 0 mm 3 mps 724 mmHg 77%
    07:00 +19°C° 0 mm 3 mps 724 mmHg 72%
    08:00 +21°C° 0 mm 3 mps 724 mmHg 67%
    09:00 +23°C° 0 mm 4 mps 724 mmHg 62%
    10:00 +26°C° 0 mm 4 mps 724 mmHg 58%
    11:00 +27°C° 0 mm 4 mps 724 mmHg 53%
    12:00 +28°C° 0 mm 4 mps 724 mmHg 50%
    13:00 +29°C° 0 mm 4 mps 724 mmHg 48%
    14:00 +29°C° 0 mm 4 mps 724 mmHg 45%
    15:00 +29°C° 0 mm 4 mps 723 mmHg 46%
    16:00 +29°C° 0 mm 4 mps 723 mmHg 47%
    17:00 +29°C° 0 mm 3 mps 723 mmHg 49%
    18:00 +27°C° 0 mm 3 mps 723 mmHg 56%
    19:00 +25°C° 0 mm 4 mps 722 mmHg 64%
    20:00 +22°C° 0 mm 4 mps 722 mmHg 72%
    21:00 +21°C° 0 mm 4 mps 722 mmHg 71%
    22:00 +20°C° 0 mm 4 mps 722 mmHg 71%
    23:00 +19°C° 0 mm 4 mps 722 mmHg 70%
    Show more